Weather History for KAFK - May, 2014

Change the Weather History Date:

Thursday, May 15, 2014

  Actual Average (KSDA) Record (KSDA)
Temperature  
Mean Temperature 48 °F -  
Max Temperature 56 °F 76 °F 96 °F (2001)
Min Temperature 39 °F 50 °F 31 °F (1959)
Degree Days  
Heating Degree Days 18    
Moisture  
Dew Point 30 °F    
Average Humidity 51    
Maximum Humidity 71    
Minimum Humidity 31    
Precipitation  
Precipitation 0.00 in - - ()
Sea Level Pressure  
Sea Level Pressure 30.16 in    
Wind  
Wind Speed 14 mph (North)    
Max Wind Speed 23 mph    
Max Gust Speed 32 mph    
Visibility 10 miles    
Events      
Averages and records for this station are not official NWS values.
T = Trace of Precipitation, MM = Missing Value Source: NWS Daily Summary

Daily Weather History Graph

Daily Weather History Graph

Search for Another Location

Airport or City:

Trip Planner

Search our weather history database for the weather conditions in past years. The results will help you decide how hot, cold, wet, or windy it might be!

Date:

Astronomy

May. 15, 2014 Rise Set
Actual Time 6:06 AM CDT 8:33 PM CDT
Civil Twilight 5:35 AM CDT 9:04 PM CDT
Nautical Twilight 4:57 AM CDT 9:43 PM CDT
Astronomical Twilight 4:14 AM CDT 10:26 PM CDT
Moon 9:42 PM CDT (5/15) 6:54 AM CDT (5/15)
Length of Visible Light 15h 29m
Length of Day
14h 26m
Full, 99% of the Moon is Illuminated
May 15
Full
May 21
Last Quarter
May 28
New
Jun 5
First Quarter
Jun 12
Full

Hourly Weather History & Observations

Time (CDT) Temp. Windchill Dew Point Humidity Pressure Visibility Wind Dir Wind Speed Gust Speed Precip Events Conditions
12:15 AM 50.9 °F - 40.1 °F 67% 30.14 in 10.0 mi North 13.8 mph - N/A   Clear
12:35 AM 50.2 °F - 41.0 °F 71% 30.14 in 10.0 mi North 13.8 mph 18.4 mph N/A   Clear
12:55 AM 50.0 °F - 41.0 °F 71% 30.15 in 10.0 mi North 11.5 mph 18.4 mph N/A   Clear
1:15 AM 49.6 °F - 40.1 °F 70% 30.15 in 10.0 mi NNE 20.7 mph 26.5 mph N/A   Clear
1:35 AM 48.4 °F - 37.8 °F 67% 30.16 in 10.0 mi NNE 17.3 mph 23.0 mph N/A   Clear
1:55 AM 47.7 °F - 34.2 °F 60% 30.16 in 10.0 mi NNE 19.6 mph 26.5 mph N/A   Clear
2:15 AM 46.9 °F - 36.0 °F 66% 30.17 in 10.0 mi North 15.0 mph 19.6 mph N/A   Scattered Clouds
2:35 AM 47.3 °F - 34.0 °F 60% 30.17 in 10.0 mi NNE 13.8 mph - N/A   Mostly Cloudy
2:55 AM 47.3 °F - 32.4 °F 56% 30.16 in 10.0 mi North 18.4 mph 25.3 mph N/A   Overcast
3:15 AM 46.4 °F 39.8 °F 32.5 °F 59% 30.16 in 10.0 mi NNE 16.1 mph 20.7 mph N/A   Mostly Cloudy
3:35 AM 45.5 °F 39.9 °F 32.9 °F 61% 30.17 in 10.0 mi NNE 11.5 mph - N/A   Scattered Clouds
3:55 AM 45.1 °F 39.5 °F 33.3 °F 63% 30.17 in 10.0 mi NNE 11.5 mph - N/A   Scattered Clouds
4:15 AM 43.7 °F 38.1 °F 33.4 °F 67% 30.16 in 10.0 mi NNE 10.4 mph - N/A   Scattered Clouds
4:35 AM 42.8 °F 38.6 °F 33.4 °F 70% 30.16 in 10.0 mi NNE 6.9 mph - N/A   Scattered Clouds
4:55 AM 41.9 °F 36.3 °F 32.7 °F 70% 30.16 in 10.0 mi NNE 9.2 mph - N/A   Scattered Clouds
5:15 AM 41.0 °F 37.1 °F 32.0 °F 70% 30.16 in 10.0 mi North 5.8 mph - N/A   Clear
5:35 AM 40.8 °F 36.2 °F 32.0 °F 71% 30.16 in 10.0 mi North 6.9 mph - N/A   Clear
5:55 AM 40.1 °F 34.7 °F 30.7 °F 69% 30.16 in 10.0 mi North 8.1 mph - N/A   Clear
6:15 AM 39.6 °F 34.7 °F 30.2 °F 69% 30.17 in 10.0 mi North 6.9 mph - N/A   Clear
6:35 AM 39.6 °F 35.4 °F 30.9 °F 71% 30.17 in 10.0 mi NNW 5.8 mph - N/A   Clear
6:55 AM 41.0 °F 35.8 °F 30.7 °F 67% 30.18 in 10.0 mi North 8.1 mph - N/A   Clear
7:15 AM 41.2 °F 37.3 °F 31.5 °F 68% 30.19 in 10.0 mi NW 5.8 mph - N/A   Clear
7:35 AM 42.3 °F 36.8 °F 31.8 °F 67% 30.19 in 10.0 mi NNW 9.2 mph - N/A   Clear
7:55 AM 43.7 °F 37.7 °F 31.1 °F 61% 30.19 in 10.0 mi NNW 11.5 mph - N/A   Clear
8:15 AM 44.1 °F 37.1 °F 31.1 °F 60% 30.19 in 10.0 mi NNW 15.0 mph - N/A   Clear
8:35 AM 44.4 °F 37.2 °F 30.4 °F 58% 30.19 in 10.0 mi NNW 16.1 mph 20.7 mph N/A   Clear
8:55 AM 45.0 °F 38.5 °F 31.1 °F 58% 30.20 in 10.0 mi North 13.8 mph - N/A   Clear
9:15 AM 45.7 °F 39.1 °F 31.1 °F 57% 30.20 in 10.0 mi North 15.0 mph - N/A   Clear
9:35 AM 46.4 °F 39.5 °F 30.6 °F 54% 30.20 in 10.0 mi North 17.3 mph 25.3 mph N/A   Clear
9:55 AM 47.5 °F - 30.4 °F 52% 30.19 in 10.0 mi North 15.0 mph 23.0 mph N/A   Clear
10:15 AM 48.4 °F - 30.0 °F 49% 30.19 in 10.0 mi NNW 17.3 mph 24.2 mph N/A   Clear
10:35 AM 49.1 °F - 28.8 °F 45% 30.19 in 10.0 mi North 17.3 mph 27.6 mph N/A   Clear
10:55 AM 50.2 °F - 29.1 °F 44% 30.19 in 10.0 mi North 18.4 mph 25.3 mph N/A   Clear
11:15 AM 50.7 °F - 28.6 °F 42% 30.19 in 10.0 mi NNW 17.3 mph 28.8 mph N/A   Clear
11:35 AM 51.4 °F - 28.6 °F 41% 30.19 in 10.0 mi NNW 17.3 mph 25.3 mph N/A   Scattered Clouds
11:55 AM 52.0 °F - 26.8 °F 38% 30.19 in 10.0 mi NNW 23.0 mph 27.6 mph N/A   Clear
12:35 PM 53.4 °F - 27.0 °F 36% 30.18 in 10.0 mi NNW 21.9 mph 32.2 mph N/A   Scattered Clouds
12:55 PM 53.6 °F - 27.3 °F 36% 30.17 in 10.0 mi North 21.9 mph 31.1 mph N/A   Scattered Clouds
1:15 PM 54.5 °F - 26.4 °F 34% 30.17 in 10.0 mi NNW 18.4 mph 32.2 mph N/A   Scattered Clouds
2:15 PM 54.7 °F - 26.2 °F 33% 30.16 in 10.0 mi NNW 18.4 mph 26.5 mph N/A   Mostly Cloudy
2:55 PM 54.7 °F - 26.4 °F 34% 30.16 in 10.0 mi NNW 16.1 mph 29.9 mph N/A   Scattered Clouds
3:15 PM 55.2 °F - 27.3 °F 34% 30.15 in 10.0 mi NNW 16.1 mph 20.7 mph N/A   Mostly Cloudy
3:35 PM 54.0 °F - 25.9 °F 34% 30.15 in 10.0 mi NNW 18.4 mph 24.2 mph N/A   Mostly Cloudy
3:55 PM 55.9 °F - 25.9 °F 31% 30.14 in 10.0 mi NNW 19.6 mph 25.3 mph N/A   Mostly Cloudy
4:15 PM 56.8 °F - 27.0 °F 32% 30.14 in 10.0 mi NNW 20.7 mph 28.8 mph N/A   Mostly Cloudy
4:35 PM 55.0 °F - 25.3 °F 32% 30.13 in 10.0 mi North 17.3 mph 24.2 mph N/A   Mostly Cloudy
4:55 PM 56.1 °F - 25.9 °F 31% 30.14 in 10.0 mi North 18.4 mph 21.9 mph N/A   Mostly Cloudy
5:15 PM 54.3 °F - 24.4 °F 31% 30.14 in 10.0 mi North 17.3 mph 21.9 mph N/A   Mostly Cloudy
5:35 PM 54.7 °F - 25.2 °F 32% 30.14 in 10.0 mi NNW 18.4 mph 24.2 mph N/A   Mostly Cloudy
5:55 PM 55.0 °F - 25.0 °F 31% 30.13 in 10.0 mi NW 13.8 mph 21.9 mph N/A   Mostly Cloudy
6:15 PM 54.9 °F - 24.6 °F 31% 30.13 in 10.0 mi NNW 20.7 mph 25.3 mph N/A   Mostly Cloudy
6:35 PM 54.5 °F - 25.2 °F 32% 30.13 in 10.0 mi North 18.4 mph 23.0 mph N/A   Mostly Cloudy
6:55 PM 54.0 °F - 25.5 °F 33% 30.13 in 10.0 mi North 16.1 mph 20.7 mph N/A   Scattered Clouds
7:15 PM 52.9 °F - 25.5 °F 35% 30.14 in 10.0 mi North 13.8 mph - N/A   Clear
7:35 PM 52.3 °F - 25.5 °F 35% 30.14 in 10.0 mi North 11.5 mph - N/A   Clear
7:55 PM 51.3 °F - 25.7 °F 37% 30.14 in 10.0 mi North 11.5 mph 17.3 mph N/A   Clear
8:15 PM 49.8 °F - 26.4 °F 40% 30.14 in 10.0 mi North 8.1 mph - N/A   Clear
8:35 PM 49.1 °F - 26.4 °F 41% 30.15 in 10.0 mi North 9.2 mph - N/A   Clear
8:55 PM 46.9 °F - 27.5 °F 47% 30.15 in 10.0 mi NNE 8.1 mph - N/A   Clear
9:15 PM 46.0 °F 41.9 °F 28.4 °F 50% 30.15 in 10.0 mi NNE 8.1 mph - N/A   Clear
9:35 PM 44.8 °F 41.0 °F 28.9 °F 54% 30.16 in 10.0 mi NE 6.9 mph - N/A   Clear
9:55 PM 43.9 °F 39.3 °F 28.9 °F 56% 30.16 in 10.0 mi NNE 8.1 mph - N/A   Clear
10:15 PM 43.0 °F 38.8 °F 29.1 °F 58% 30.16 in 10.0 mi NNE 6.9 mph - N/A   Clear
10:35 PM 42.8 °F 39.3 °F 29.3 °F 59% 30.17 in 10.0 mi NNE 5.8 mph - N/A   Clear
10:55 PM 41.9 °F 39.0 °F 29.3 °F 61% 30.17 in 10.0 mi NNE 4.6 mph - N/A   Clear
11:15 PM 41.4 °F 37.6 °F 29.3 °F 62% 30.17 in 10.0 mi NNE 5.8 mph - N/A   Clear
11:55 PM 41.0 °F 39.0 °F 28.9 °F 62% 30.16 in 10.0 mi NNE 3.5 mph - N/A   Clear